User: anonymous   Login
Location: Unspecified
(0.0000°N, 0.0000°E)
Time: 03:18:55
(UTC+00:00)
Language:

Prospero - Orbit

View from above orbital plane
View from above orbital plane
View from above satellite
View from above satellite

Ground track
Ground track

The orbit data is extracted from the following two-line orbital elements,

1  5580U 71093A   18202.59511370 +.00000190 +00000-0 +37409-4 0  9999
2  5580 082.0419 283.7847 0530293 159.9727 202.3147 13.94355884345523
Epoch (UTC): 21 July 2018 14:16:57
Eccentricity: 0.0530293
inclination: 82.0419°
perigee height: 527 km
apogee height: 1300 km
right ascension of ascending node: 283.7847°
argument of perigee: 159.9727°
revolutions per day: 13.94355884
mean anomaly at epoch: 202.3147°
orbit number at epoch: 34552

The dashed part of the orbit path shows where the satellite is in the earth's shadow,  

DLR